Date String (YYYY-MM-DD hh:mm:ss) UTC,Instrument flags,Ambient pressure (hPa),Sample flow (lpm),Bypass flow (lpm),Sample temperature (°C),Ambient temperature (°C),ASC tube jacket temperature (°C),LED temperature (°C),Box temperature (°C),Sample RH (%),Span deviation,Mass concentration (μg/m³),Mass concentration (μg/m³),Mass concentration (μg/m³)
DateTimeUTC,F1_M11,P_M11,Q1_M11,Q2_M11,T1_M11,T2_M11,T3_M11,T4_M11,T5_M11,U1_M11,ZSPAN_M11,X0_M11,X2_M11,X1_M11
2022-07-21 00:00:00,,0828.9,5.00,0.00,29.2,27.9,00.0,37.9,31.2,34.6,0000.0,0014.72,0006.40,0004.38
2022-07-21 00:01:00,,0828.9,5.00,0.00,29.2,28.1,00.0,37.9,31.3,34.8,0000.0,0014.52,0006.35,0004.37
2022-07-21 00:02:00,,0829.2,5.01,0.00,29.4,28.2,00.0,37.9,31.4,35.0,0000.0,0014.51,0006.30,0004.36
2022-07-21 00:03:00,,0829.2,5.00,0.00,29.5,28.0,00.0,37.9,31.5,34.2,0000.0,0014.42,0006.25,0004.33
2022-07-21 00:04:00,,0829.2,4.99,0.00,29.6,27.4,00.0,37.9,31.4,33.3,0000.0,0014.50,0006.30,0004.32
2022-07-21 00:05:00,,0829.1,5.01,0.00,29.6,27.0,00.0,37.9,31.3,33.4,0000.0,0014.29,0006.20,0004.30
2022-07-21 00:06:00,,0829.2,5.00,0.00,29.6,27.0,00.0,37.9,31.2,32.9,0000.0,0014.50,0006.14,0004.28
2022-07-21 00:07:00,,0828.8,4.99,0.00,29.6,27.1,00.0,38.0,31.1,33.3,0000.0,0014.67,0006.12,0004.27
2022-07-21 00:08:00,,0828.7,4.99,0.00,29.5,27.2,00.0,38.0,31.1,33.5,0000.0,0014.55,0006.05,0004.25
2022-07-21 00:09:00,,0828.7,5.00,0.00,29.5,27.4,00.0,38.0,31.1,33.4,0000.0,0014.44,0006.00,0004.23
2022-07-21 00:10:00,,0828.7,5.01,0.00,29.5,27.6,00.0,38.0,31.2,33.7,0000.0,0013.65,0005.94,0004.22
2022-07-21 00:11:00,,0828.7,5.00,0.00,29.6,27.8,00.0,38.1,31.3,33.9,0000.0,0012.84,0005.85,0004.20
2022-07-21 00:12:00,,0828.9,5.00,0.00,29.6,28.0,00.0,38.1,31.3,33.3,0000.0,0012.76,0005.85,0004.20
2022-07-21 00:13:00,,0828.7,4.99,0.00,29.6,28.1,00.0,38.1,31.4,34.1,0000.0,0012.54,0005.81,0004.18
2022-07-21 00:14:00,,0828.7,5.01,0.00,29.7,28.3,00.0,38.2,31.5,35.9,0000.0,0012.54,0005.73,0004.19
2022-07-21 00:15:00,,0828.8,4.99,0.00,29.9,28.0,00.0,38.1,31.6,33.5,0000.0,0012.57,0005.58,0004.17
2022-07-21 00:16:00,,0828.9,5.00,0.00,30.1,27.3,00.0,38.1,31.5,33.0,0000.0,0012.42,0005.53,0004.15
2022-07-21 00:17:00,,0828.9,5.01,0.00,30.1,27.1,00.0,38.1,31.4,32.7,0000.0,0012.02,0005.53,0004.15
2022-07-21 00:18:00,,0828.7,4.99,0.00,30.1,27.1,00.0,38.2,31.3,31.3,0000.0,0011.37,0005.53,0004.16
2022-07-21 00:19:00,,0828.7,5.01,0.00,30.0,27.2,00.0,38.2,31.3,31.1,0000.0,0011.66,0005.51,0004.15
2022-07-21 00:20:00,,0828.9,5.00,0.00,30.0,27.4,00.0,38.2,31.3,30.2,0000.0,0011.76,0005.50,0004.15
2022-07-21 00:21:00,,0829.2,5.00,0.00,30.0,27.6,00.0,38.3,31.3,30.9,0000.0,0011.75,0005.46,0004.14
2022-07-21 00:22:00,,0829.2,5.00,0.00,30.0,27.8,00.0,38.3,31.4,29.9,0000.0,0011.66,0005.43,0004.14
2022-07-21 00:23:00,,0828.6,5.00,0.00,30.0,27.9,00.0,38.4,31.4,29.5,0000.0,0011.60,0005.41,0004.14
2022-07-21 00:24:00,,0828.8,5.01,0.00,30.0,28.1,00.0,38.4,31.5,28.9,0000.0,0011.86,0005.41,0004.15
2022-07-21 00:25:00,,0828.6,5.00,0.00,30.1,28.2,00.0,38.4,31.6,28.4,0000.0,0011.76,0005.39,0004.13
2022-07-21 00:26:00,,0829.1,4.99,0.00,30.1,27.7,00.0,38.4,31.5,28.7,0000.0,0011.00,0005.37,0004.12
2022-07-21 00:27:00,,0829.0,5.00,0.00,30.0,27.2,00.0,38.3,31.4,29.6,0000.0,0010.85,0005.31,0004.11
2022-07-21 00:28:00,,0828.8,5.01,0.00,30.0,27.0,00.0,38.3,31.3,30.0,0000.0,0010.88,0005.27,0004.10
2022-07-21 00:29:00,,0828.9,4.99,0.00,29.9,27.1,00.0,38.3,31.2,29.7,0000.0,0010.74,0005.21,0004.09
2022-07-21 00:30:00,,0828.9,5.01,0.00,29.8,27.3,00.0,38.4,31.2,29.7,0000.0,0010.29,0005.18,0004.08
2022-07-21 00:31:00,,0828.6,5.00,0.00,29.8,27.5,00.0,38.4,31.3,30.3,0000.0,0010.07,0005.16,0004.07
2022-07-21 00:32:00,,0828.5,5.01,0.00,29.8,27.7,00.0,38.4,31.3,30.6,0000.0,0010.10,0005.14,0004.07
2022-07-21 00:33:00,,0828.6,5.00,0.00,29.8,27.9,00.0,38.4,31.4,30.8,0000.0,0010.09,0005.13,0004.07
2022-07-21 00:34:00,,0828.8,5.00,0.00,29.8,28.0,00.0,38.4,31.4,30.7,0000.0,0009.93,0005.08,0004.06
2022-07-21 00:35:00,,0828.8,4.99,0.00,29.8,28.2,00.0,38.4,31.5,30.7,0000.0,0009.57,0005.03,0004.05
2022-07-21 00:36:00,,0829.0,5.00,0.00,29.9,28.3,00.0,38.4,31.6,30.3,0000.0,0009.62,0005.06,0004.06
2022-07-21 00:37:00,,0829.1,4.99,0.00,29.9,27.9,00.0,38.4,31.5,30.7,0000.0,0009.91,0005.09,0004.08
2022-07-21 00:38:00,,0829.0,5.00,0.00,29.8,27.3,00.0,38.3,31.4,31.0,0000.0,0010.09,0005.17,0004.09
2022-07-21 00:39:00,,0829.0,5.00,0.00,29.8,27.1,00.0,38.3,31.4,31.2,0000.0,0009.94,0005.18,0004.10
2022-07-21 00:40:00,,0828.8,4.99,0.00,29.7,27.1,00.0,38.3,31.3,31.3,0000.0,0010.08,0005.23,0004.10
2022-07-21 00:41:00,,0829.0,5.01,0.00,29.7,27.3,00.0,38.3,31.2,31.4,0000.0,0010.08,0005.23,0004.10
2022-07-21 00:42:00,,0829.0,4.99,0.00,29.7,27.4,00.0,38.3,31.3,30.7,0000.0,0010.22,0005.19,0004.12
2022-07-21 00:43:00,,0828.8,5.00,0.00,29.6,27.6,00.0,38.3,31.3,30.7,0000.0,0010.46,0005.24,0004.13
2022-07-21 00:44:00,,0828.7,5.00,0.00,29.6,27.8,00.0,38.3,31.4,29.9,0000.0,0010.57,0005.31,0004.13
2022-07-21 00:45:00,,0828.5,5.00,0.00,29.7,28.0,00.0,38.3,31.4,30.2,0000.0,0010.70,0005.35,0004.14
2022-07-21 00:46:00,,0828.5,5.00,0.00,29.7,28.2,00.0,38.3,31.5,30.0,0000.0,0010.93,0005.38,0004.15
2022-07-21 00:47:00,,0828.5,4.99,0.00,29.7,28.3,00.0,38.4,31.5,30.5,0000.0,0011.42,0005.36,0004.14
2022-07-21 00:48:00,,0828.5,5.00,0.00,29.7,28.0,00.0,38.3,31.5,30.8,0000.0,0011.18,0005.34,0004.13
2022-07-21 00:49:00,,0828.5,5.01,0.00,29.7,27.4,00.0,38.3,31.4,31.0,0000.0,0011.30,0005.33,0004.12
2022-07-21 00:50:00,,0828.5,4.99,0.00,29.7,27.1,00.0,38.2,31.4,31.4,0000.0,0011.44,0005.37,0004.12
2022-07-21 00:51:00,,0828.4,5.00,0.00,29.6,27.1,00.0,38.2,31.3,31.7,0000.0,0011.42,0005.36,0004.12
2022-07-21 00:52:00,,0828.5,5.00,0.00,29.6,27.2,00.0,38.2,31.2,32.1,0000.0,0012.08,0005.41,0004.12
2022-07-21 00:53:00,,0828.5,4.99,0.00,29.5,27.4,00.0,38.3,31.2,32.5,0000.0,0012.33,0005.47,0004.12
2022-07-21 00:54:00,,0828.5,5.00,0.00,29.5,27.6,00.0,38.2,31.3,32.5,0000.0,0011.88,0005.42,0004.11
2022-07-21 00:55:00,,0828.5,5.00,0.00,29.5,27.8,00.0,38.2,31.3,33.2,0000.0,0011.80,0005.40,0004.11
2022-07-21 00:56:00,,0828.5,5.00,0.00,29.6,28.0,00.0,38.3,31.4,33.4,0000.0,0012.32,0005.42,0004.11
2022-07-21 00:57:00,,0828.5,5.01,0.00,29.6,28.1,00.0,38.3,31.4,34.0,0000.0,0012.49,0005.41,0004.11
2022-07-21 00:58:00,,0828.5,4.99,0.00,29.6,28.3,00.0,38.3,31.5,34.3,0000.0,0011.96,0005.44,0004.12
2022-07-21 00:59:00,,0828.5,5.02,0.00,29.6,28.1,00.0,38.2,31.5,34.1,0000.0,0012.19,0005.49,0004.13
